This demonstration page uses our WeatherBlox Daily Observations layout. Learn more.

Left ArrowRight Arrow

39.01783, -85.05884

Hourly Observations for February 22, 2017

Temp ( °F °C ) Dew Point ( °F °C ) Humidity (%) Winds ( mph kmh ) Pressure ( in mb ) Visibility ( mi km ) Precip ( " mm )
12:52 am 00:52 Cloudy with Light Rain 55 12.8 55 12.8 100 100 S 6 9 29.93 1014 1 2 0.02 0.51
1:52 am 01:52 Cloudy with Mist and Fog 55 12.8 55 12.8 100 100 S 6 9 29.92 1013 1 2 0.02 0.51
2:52 am 02:52 Cloudy with Mist and Fog 56 13.3 55 12.8 97 97 S 7 11 29.90 1013 2 2 0.00 0.00
3:29 am 03:29 Cloudy with Mist and Fog 56 13.3 56 13.3 100 100 SSE 7 11 29.91 1013 2 2 0.00 0.00
3:52 am 03:52 Cloudy with Mist and Fog 56 13.3 56 13.3 100 100 SSE 8 13 29.90 1012 3 5 0.00 0.00
4:52 am 04:52 Cloudy with Mist and Fog 56 13.3 55 12.8 97 97 S 7 11 29.90 1013 5 8 0.00 0.00
5:52 am 05:52 Cloudy with Mist and Fog 56 13.3 55 12.8 97 97 SSW 5 7 29.90 1013 6 10 0.00 0.00
6:16 am 06:16 Cloudy with Mist and Fog 55 13 55 13 100 100 SSW 8 13 29.91 1013 6 10 0.00 0.00
6:52 am 06:52 Cloudy with Mist and Fog 56 13.3 55 12.8 97 97 S 7 11 29.91 1013 6 10 0.00 0.00
7:11 am 07:11 Cloudy with Light Rain 56 13.3 55 12.8 97 97 S 6 9 29.91 1013 5 8 0.00 0.03
7:52 am 07:52 Cloudy with Mist and Fog 56 13.3 55 12.8 97 97 S 6 9 29.92 1013 4 6 0.00 0.03
8:29 am 08:29 Cloudy with Mist and Fog 56 13.3 55 12.8 97 97 S 6 9 29.94 1014 2 3 0.00 0.03
8:40 am 08:40 Cloudy with Mist and Fog 55 13 55 13 100 100 S 6 9 29.94 1014 2 3 0.00 0.00
8:52 am 08:52 Cloudy with Light Rain 56 13.3 55 12.8 97 97 S 7 11 29.92 1013 2 3 0.00 0.03
9:21 am 09:21 Cloudy with Mist and Fog 56 13.3 56 13.3 100 100 S 7 11 29.94 1014 2 3 0.00 0.03
9:46 am 09:46 Cloudy with Mist and Fog 55 13 55 13 100 100 S 7 11 29.91 1013 2 3 0.00 0.00
9:52 am 09:52 Cloudy with Light Rain 56 13.3 56 13.3 100 100 S 7 11 29.91 1013 2 3 0.01 0.25
9:56 am 09:56 Cloudy with Light Rain 55 13 55 13 100 100 S 8 13 29.91 1013 2 3 0.00 0.00
10:26 am 10:26 Cloudy with Mist and Fog 57 14 55 13 94 94 S 9 15 29.91 1013 2 3 0.00 0.00
10:45 am 10:45 Cloudy with Mist and Fog 58 14.4 56 13.3 93 93 S 9 15 29.91 1013 3 5 0.00 0.03
10:52 am 10:52 Cloudy with Mist and Fog 58 14.4 57 13.9 97 97 S 9 15 29.89 1012 3 5 0.00 0.03
11:32 am 11:32 Cloudy 59 15 55 13 88 88 SSW 8 13 29.91 1013 3 5 0.00 0.00
11:52 am 11:52 Cloudy 59 15 57 13.9 93 93 SSW 9 15 29.89 1012 3 5 0.00 0.00
12:52 pm 12:52 Cloudy 60 15.6 57 13.9 90 90 SW 9 15 29.86 1011 7 11 0.00 0.00
1:44 pm 13:44 Cloudy 62 16.7 57 13.9 84 84 VRB 6 9 29.83 1010 8 13 0.00 0.00
1:52 pm 13:52 Cloudy 63 17.2 58 14.4 84 84 WSW 6 9 29.83 1010 8 13 0.00 0.00
2:43 pm 14:43 Cloudy 63 17.2 57 13.9 81 81 S 10 17 29.80 1009 10 16 0.00 0.00
2:52 pm 14:52 Cloudy 64 17.8 57 13.9 78 78 S 9 15 29.81 1010 10 16 0.00 0.00
3:52 pm 15:52 Cloudy 64 17.8 57 13.9 78 78 SSW 7 11 29.79 1009 10 16 0.00 0.00
4:52 pm 16:52 Cloudy 65 18.3 57 13.9 76 76 S 6 9 29.78 1009 10 16 0.00 0.00
5:18 pm 17:18 Cloudy 64 18 57 14 78 78 S 5 7 29.77 1008 10 16 0.00 0.00
5:52 pm 17:52 Mostly Cloudy 64 17.8 57 13.9 78 78 Calm 29.78 1009 10 16 0.00 0.00
6:52 pm 18:52 Mostly Cloudy 61 16.1 57 13.9 87 87 SSE 6 9 29.79 1009 10 16 0.00 0.00
7:52 pm 19:52 Partly Cloudy 61 16.1 55 12.8 81 81 SSW 6 9 29.80 1009 10 16 0.00 0.00
8:52 pm 20:52 Cloudy 63 17.2 56 13.3 78 78 SSW 7 11 29.80 1009 10 16 0.00 0.00
9:52 pm 21:52 Cloudy 62 16.7 56 13.3 80 80 S 7 11 29.80 1009 10 16 0.00 0.00
10:52 pm 22:52 Mostly Cloudy 61 16.1 56 13.3 84 84 S 9 15 29.79 1009 10 16 0.00 0.00
11:52 pm 23:52 Partly Cloudy 59 15 55 12.8 87 87 S 7 11 29.78 1008 10 16 0.00 0.00

Powered by AerisWeather